Weather History for Ft. Stewart, GA

Change the Weather History Date:

Thursday, August 8, 2013

  Actual Average Record
Temperature  
Mean Temperature 78 °F -  
Max Temperature 87 °F 92 °F 100 °F (1968)
Min Temperature 70 °F 71 °F 64 °F (2002)
Cooling Degree Days 14    
Growing Degree Days 28 (Base 50)    
Moisture  
Dew Point 77 °F    
Average Humidity 93    
Maximum Humidity 100    
Minimum Humidity 74    
Precipitation  
Precipitation 0.53 in - - ()
Sea Level Pressure  
Sea Level Pressure 30.04 in    
Wind  
Wind Speed 3 mph (East)    
Max Wind Speed 15 mph    
Max Gust Speed 23 mph    
Visibility 8 miles    
Events Fog , Rain , Thunderstorm    
Averages and records for this station are not official NWS values.
T = Trace of Precipitation, MM = Missing Value Source: NWS Daily Summary

Daily Weather History Graph

Daily Weather History Graph

Search for Another Location

Airport:

Trip Planner

Search our weather history database for the weather conditions in past years. The results will help you decide how hot, cold, wet, or windy it might be!

Date:

Astronomy

Aug. 08, 2013 Rise Set
Actual Time 6:46 AM EDT 8:16 PM EDT
Civil Twilight 6:20 AM EDT 8:42 PM EDT
Nautical Twilight 5:49 AM EDT 9:13 PM EDT
Astronomical Twilight 5:16 AM EDT 9:46 PM EDT
Moon 8:22 AM EDT (8/8) 9:06 PM EDT (8/8)
Length of Visible Light 14h 22m
Length of Day
13h 30m
Waxing Crescent, 3% of the Moon is Illuminated
Aug 8
Waxing Crescent
Aug 14
First Quarter
Aug 20
Full
Aug 28
Last Quarter
Sep 5
New

Hourly Weather History & Observations

Time (EDT) Temp. Heat Index Dew Point Humidity Pressure Visibility Wind Dir Wind Speed Gust Speed Precip Events Conditions
12:58 AM 72.0 °F - 72.0 °F 100% 30.02 in 10.0 mi Calm Calm - N/A   Clear
1:58 AM 70.9 °F - 70.9 °F 100% 30.02 in 10.0 mi Calm Calm - N/A   Clear
2:58 AM 70.3 °F - 70.3 °F 100% 30.00 in 10.0 mi Calm Calm - N/A   Clear
3:58 AM 70.3 °F - 70.3 °F 100% 29.99 in 10.0 mi Calm Calm - N/A   Clear
4:58 AM 70.0 °F - 70.0 °F 100% 30.00 in 10.0 mi Calm Calm - N/A   Clear
5:58 AM 71.1 °F - 71.1 °F 100% 30.01 in 10.0 mi Calm Calm - N/A   Scattered Clouds
6:18 AM 71.6 °F - 71.6 °F 100% 30.00 in 10.0 mi Calm Calm - N/A   Mostly Cloudy
6:58 AM 71.8 °F - 71.8 °F 100% 30.02 in 10.0 mi Calm Calm - N/A   Mostly Cloudy
7:18 AM 73.4 °F - 73.4 °F 100% 30.01 in 10.0 mi Calm Calm - N/A   Scattered Clouds
7:58 AM 74.1 °F - 74.1 °F 100% 30.03 in 10.0 mi Calm Calm - N/A   Clear
8:58 AM 78.6 °F - 78.6 °F 100% 30.05 in 10.0 mi NE 2.3 mph - N/A   Clear
9:58 AM 82.2 °F 92.5 °F 79.5 °F 91% 30.05 in 10.0 mi Calm Calm - N/A   Scattered Clouds
10:43 AM 86.0 °F 101.9 °F 80.6 °F 84% 30.03 in 10.0 mi ENE 1.2 mph - N/A   Mostly Cloudy
10:58 AM 85.1 °F 98.0 °F 79.2 °F 82% 30.04 in 10.0 mi Calm Calm - N/A   Mostly Cloudy
11:35 AM 82.4 °F 92.4 °F 78.8 °F 89% 30.05 in 9.0 mi South 10.4 mph - N/A Rain Light Rain
11:40 AM 80.6 °F 88.1 °F 78.8 °F 94% 30.06 in 1.5 mi SE 11.5 mph 23.0 mph N/A Rain Heavy Rain
11:44 AM 78.8 °F - 77.0 °F 94% 30.06 in 0.5 mi Variable 3.5 mph 23.0 mph N/A Fog , Rain Heavy Rain
11:45 AM 78.8 °F - 77.0 °F 94% 30.06 in 0.5 mi West 3.5 mph 23.0 mph N/A Fog , Rain Heavy Rain
11:50 AM 77.0 °F - 77.0 °F 100% 30.06 in 0.5 mi NNW 1.2 mph - N/A Fog , Rain Heavy Rain
11:53 AM 77.0 °F - 77.0 °F 100% 30.06 in 3.0 mi Variable 1.2 mph - N/A Fog , Rain Rain
11:58 AM 77.0 °F - 77.0 °F 100% 30.07 in 1.2 mi North 6.9 mph - 0.53 in Rain , Thunderstorm Heavy Thunderstorms and Rain
11:59 AM 77.0 °F - 77.0 °F 100% 30.07 in 5.0 mi North 5.8 mph - N/A Rain Rain
12:02 PM 77.0 °F - 77.0 °F 100% 30.06 in 6.0 mi North 3.5 mph - N/A Rain Light Rain
12:03 PM 77.0 °F - 77.0 °F 100% 30.06 in 7.0 mi North 3.5 mph - N/A Rain , Thunderstorm Light Thunderstorms and Rain
12:08 PM 77.0 °F - 77.0 °F 100% 30.06 in 10.0 mi North 5.8 mph - N/A Rain Light Rain
12:13 PM 77.0 °F - 77.0 °F 100% 30.06 in 10.0 mi North 3.5 mph - N/A Rain Light Rain
12:34 PM 77.0 °F - 77.0 °F 100% 30.05 in 10.0 mi Calm Calm - N/A   Mostly Cloudy
12:58 PM 77.5 °F - 77.4 °F 99% 30.06 in 10.0 mi Calm Calm - 0.00 in   Overcast
1:58 PM 80.2 °F 87.3 °F 79.2 °F 96% 30.05 in 10.0 mi Calm Calm - N/A   Mostly Cloudy
2:58 PM 86.0 °F 100.8 °F 80.1 °F 82% 30.03 in 10.0 mi NE 4.6 mph - N/A   Mostly Cloudy
3:25 PM 87.8 °F 102.5 °F 78.8 °F 75% 30.03 in 10.0 mi East 4.6 mph - N/A Thunderstorm Thunderstorm
3:40 PM 87.8 °F 102.5 °F 78.8 °F 75% 30.02 in 10.0 mi SSE 15.0 mph 19.6 mph N/A   Scattered Clouds
3:44 PM 86.0 °F 96.9 °F 77.0 °F 74% 30.02 in 10.0 mi SE 15.0 mph 19.6 mph N/A Thunderstorm Thunderstorm
3:58 PM 84.9 °F 95.7 °F 77.5 °F 78% 30.03 in 10.0 mi ESE 13.8 mph 19.6 mph N/A Thunderstorm Thunderstorm
3:59 PM 84.2 °F 94.1 °F 77.0 °F 79% 30.02 in 10.0 mi ESE 12.7 mph - N/A   Partly Cloudy
4:58 PM 85.8 °F 96.4 °F 76.6 °F 74% 30.02 in 10.0 mi SE 5.8 mph - N/A   Partly Cloudy
5:58 PM 86.0 °F 97.8 °F 77.7 °F 76% 30.01 in 10.0 mi SSE 6.9 mph - N/A   Clear
6:58 PM 85.1 °F 98.0 °F 79.2 °F 82% 30.02 in 10.0 mi ESE 9.2 mph - N/A   Clear
7:58 PM 82.9 °F 94.1 °F 79.5 °F 89% 30.02 in 10.0 mi East 4.6 mph - N/A   Clear
8:58 PM 80.6 °F 88.5 °F 79.5 °F 96% 30.04 in 10.0 mi SE 4.6 mph - N/A   Clear
9:58 PM 79.3 °F - 79.2 °F 99% 30.07 in 10.0 mi South 2.3 mph - N/A   Clear
10:58 PM 78.3 °F - 78.3 °F 100% 30.08 in 10.0 mi SSE 3.5 mph - N/A   Clear